Temp
9 9 9 9 9 9 9 9 9 9 9 10 10 10 10 10 10 10 9 9 9 10 10 10 10 10 10 10 10 10 10 10 10 10 10 10 10 10 10 10 10 10 10 10 10 10 10 10 10 10 10 10 10 10 10 9 9 9 9 9 9 9 8 8 8 8 8 8 8 8 8 9 9 9
9 9 9 9 9 9 9 9 9 9 9 9 10 10 10 10 10 10 10 9 9 10 10 10 10 10 10 10 10 10 10 10 10 10 10 10 10 10 10 10 10 10 10 10 10 10 10 10 10 10 10 10 10 10 10 10 10 10 9 9 9 9 9 9 9 8 8 8 8 8 8 9 9 9
9 9 9 9 9 9 9 9 9 9 9 9 9 10 10 10 10 10 10 10 9 9 10 10 10 10 10 10 10 10 10 10 10 10 10 10 10 10 10 10 10 10 10 10 10 10 10 10 10 10 10 10 10 10 10 10 10 10 9 9 9 9 9 9 9 9 9 9 9 8 8 8 8 9
9 9 9 9 9 9 9 9 9 9 9 9 9 9 9 10 10 10 10 10 9 9 10 10 10 10 10 10 10 10 10 10 10 10 10 10 10 10 10 10 10 10 10 10 10 10 10 10 10 10 10 10 10 9 9 9 9 9 9 9 9 9 9 9 9 9 9 9 9 9 9 9 9 9
8 9 9 9 9 9 9 9 9 9 9 9 9 9 9 9 10 10 10 10 10 9 10 10 10 10 10 10 10 10 10 10 10 10 10 10 10 10 10 10 10 10 10 10 10 10 10 10 10 9 9 9 9 9 9 9 9 9 9 9 9 9 9 9 9 9 9 9 9 9 9 9 9 9
8 9 9 9 9 9 9 9 9 9 9 9 9 9 9 9 9 10 10 10 10 10 9 9 9 10 10 10 10 10 10 10 10 10 10 10 10 10 10 10 10 10 9 9 9 10 10 10 10 10 9 9 9 9 9 9 9 9 9 9 9 9 9 9 9 9 9 9 9 9 9 9 9 8
8 9 9 9 9 9 9 9 9 9 9 9 9 9 9 9 9 9 10 10 10 10 9 9 9 10 10 10 10 10 10 10 10 10 10 10 10 10 10 10 9 9 9 9 9 9 9 10 10 10 9 9 9 9 9 9 9 9 9 9 9 9 9 9 9 9 9 9 9 9 9 9 8 8
9 9 9 9 9 9 9 9 9 9 9 9 9 9 9 9 9 10 10 10 10 10 10 10 10 10 10 10 10 10 10 10 10 10 9 9 9 9 9 9 9 9 9 9 9 9 9 9 9 9 9 9 9 9 9 9 9 9 9 9 9 9 9 9 9 9 9 9 9 9 9 9 9 9
9 9 9 9 9 9 9 9 9 9 9 9 9 9 9 9 9 10 10 10 10 10 10 10 10 10 10 10 10 10 10 10 10 9 9 9 9 9 9 9 9 9 9 9 9 9 9 9 9 9 9 9 9 9 9 9 9 9 9 9 9 9 9 9 9 9 9 9 9 9 9 9 9 9
9 9 9 9 9 9 9 9 9 9 9 9 9 9 9 9 10 10 9 10 10 10 10 10 10 10 10 10 10 10 10 10 10 9 9 9 9 9 9 9 9 9 9 9 9 9 9 9 9 9 9 9 9 9 9 9 9 9 9 9 9 9 9 9 9 9 8 8 8 8 8 8 8 8
9 9 9 9 9 10 10 9 9 9 9 9 10 10 10 10 10 10 10 10 10 10 10 10 10 10 10 10 10 10 10 10 9 9 9 9 9 9 9 9 9 9 9 9 9 9 9 9 9 9 9 8 8 8 9 9 8 8 9 9 9 9 9 9 9 9 9 9 8 8 8 8 8 8
9 9 9 9 9 9 9 9 9 9 10 10 10 10 10 10 10 10 10 10 10 10 10 10 10 10 10 10 10 10 9 9 9 9 9 9 9 9 9 9 9 9 9 9 8 8 8 8 8 9 9 8 8 8 8 8 8 8 8 8 9 9 9 9 9 9 9 9 9 8 8 8 8 8
9 9 9 9 9 9 9 9 9 10 10 10 9 10 10 10 10 10 10 10 10 10 10 10 10 10 10 10 10 10 10 10 9 9 9 9 9 9 9 9 9 9 9 9 9 9 8 8 8 8 8 8 8 8 8 8 8 8 8 8 8 8 8 8 9 9 9 8 8 8 8 8 8 8
9 9 9 9 9 9 9 9 10 10 10 9 9 10 10 10 10 10 10 10 10 10 10 10 10 10 10 10 10 10 10 9 9 9 9 9 9 9 9 9 9 9 9 9 9 9 9 9 9 8 8 8 8 8 8 8 8 8 8 8 8 8 8 8 8 8 8 8 8 8 8 8 7 7
9 9 9 10 9 9 9 10 10 10 10 9 9 10 10 10 10 10 10 10 10 10 10 10 10 10 10 10 10 10 10 9 9 9 9 9 9 9 9 9 9 9 9 9 9 9 9 9 9 8 8 8 8 8 8 8 8 8 7 7 7 8 8 8 8 8 8 8 7 7 7 7 7 7
9 9 10 10 9 9 10 10 10 10 10 10 10 10 10 10 10 10 10 10 10 10 10 10 10 10 10 10 10 10 10 10 10 9 9 9 9 9 10 9 9 9 9 9 9 8 8 8 8 8 8 8 8 8 8 7 7 7 7 7 7 7 7 7 7 7 7 7 7 7 7 7 7 7
10 10 10 10 10 10 10 10 10 10 10 10 10 10 10 10 10 10 10 10 10 10 10 10 10 10 10 10 10 10 10 10 10 9 9 9 9 9 9 9 9 9 9 9 9 9 8 8 8 8 8 8 8 8 8 7 7 7 7 7 7 7 7 7 7 7 7 7 7 7 7 7 6 7
10 10 10 10 10 10 10 10 10 10 10 10 10 10 10 10 10 10 10 10 10 10 10 10 10 10 10 10 10 10 10 10 10 9 9 9 9 9 9 9 9 9 9 9 9 9 9 8 8 8 8 8 8 8 8 8 7 7 7 7 7 7 7 7 7 7 7 7 7 7 7 6 6 6
10 10 10 10 10 10 11 11 11 11 11 11 11 11 11 11 11 11 10 10 11 11 11 10 10 10 10 10 10 10 10 10 10 10 10 10 9 9 9 9 9 9 9 9 9 9 9 9 9 9 8 8 8 8 8 7 7 7 7 7 7 7 7 7 7 7 7 7 6 6 6 6 6 6
10 10 10 10 11 11 11 11 11 11 11 11 11 11 11 11 11 11 11 11 11 11 11 11 11 10 10 10 10 10 10 10 10 10 10 10 10 10 10 10 9 9 9 9 10 10 10 9 9 9 8 8 8 8 8 7 7 7 7 7 7 7 7 7 7 7 7 7 7 7 6 6 6 6
11 11 11 11 11 11 11 11 11 11 11 11 11 12 12 12 12 11 12 11 11 11 11 11 11 11 11 11 10 10 10 10 10 10 10 10 10 10 10 10 10 10 10 10 10 10 10 9 9 9 8 8 8 8 8 8 7 7 7 7 7 7 7 7 7 7 7 7 7 7 7 7 7 7
11 11 11 11 11 11 11 11 11 11 11 11 11 11 12 12 12 12 12 12 12 12 11 11 11 11 11 11 11 10 10 10 10 10 10 10 10 10 10 10 10 10 10 10 9 9 9 9 8 8 8 8 8 8 8 8 8 8 8 7 7 8 7 7 7 8 7 7 7 7 7 7 7 7
11 11 11 11 11 11 11 11 11 11 11 11 11 11 12 12 12 12 12 12 12 12 12 12 11 11 11 11 11 11 11 11 11 11 11 10 10 10 10 10 10 10 10 9 9 9 9 9 8 8 8 8 8 8 8 8 8 8 8 7 7 7 7 7 8 8 7 7 7 7 7 7 7 7
11 11 11 11 11 11 12 12 12 12 12 12 12 12 12 12 12 12 12 12 12 12 12 12 12 11 11 11 11 11 11 11 11 11 11 11 11 10 10 10 10 10 9 9 9 9 9 8 8 8 8 8 8 8 8 8 8 8 7 7 7 7 7 7 7 7 7 7 7 7 7 7 7 7
11 12 12 12 12 12 12 12 12 12 12 12 12 12 12 12 12 12 12 12 12 12 12 12 12 12 11 11 11 11 11 11 11 11 11 11 10 10 10 10 9 9 9 9 9 9 9 8 8 8 8 8 8 8 8 8 8 8 7 7 7 7 7 7 7 7 7 7 7 7 7 7 7 6
12 12 12 12 12 12 12 12 12 12 12 12 12 12 12 12 12 12 12 12 12 12 12 12 12 11 11 11 11 11 11 11 11 11 11 10 10 10 10 10 9 9 9 9 9 9 9 8 8 8 8 8 8 8 8 8 8 8 7 7 7 7 7 7 7 7 7 7 7 7 7 6 6 6
12 12 12 12 12 12 12 12 12 12 12 12 12 12 12 12 12 12 12 12 12 12 12 11 11 11 11 11 11 11 11 11 11 10 10 10 10 10 10 10 9 9 9 9 9 9 9 8 8 8 8 8 8 8 8 8 7 7 7 7 7 7 7 7 7 7 6 6 6 6 6 6 6 6
12 12 12 12 12 12 12 12 12 12 12 12 12 12 12 12 12 12 12 12 12 11 11 11 11 11 11 11 11 11 11 11 11 10 10 10 10 10 10 10 10 10 9 9 9 9 9 9 9 8 8 8 8 8 8 7 7 7 7 7 7 7 7 7 7 6 6 6 6 6 6 6 6 6
12 12 12 12 12 12 12 12 12 12 12 12 12 12 12 12 12 12 12 12 12 11 11 11 11 11 11 11 11 11 11 11 11 11 10 10 10 10 10 10 10 10 10 9 9 9 9 9 9 9 8 8 8 8 8 7 7 7 7 7 7 7 7 7 7 6 6 6 6 6 6 6 6 6
12 12 12 12 12 12 12 12 12 12 12 12 12 12 12 12 12 12 12 12 12 11 11 11 11 11 11 11 11 11 11 11 11 11 11 11 11 11 11 10 10 10 10 10 9 9 9 9 9 9 8 8 8 8 8 7 7 7 7 7 7 7 7 7 7 6 6 6 6 6 6 6 5 5
11 11 12 12 12 12 12 12 12 12 12 12 12 12 12 12 12 11 11 11 11 11 11 11 11 12 12 12 12 12 12 12 12 12 12 12 11 11 11 11 10 10 10 10 9 9 9 9 9 8 8 8 8 8 7 7 7 7 7 7 7 7 7 7 7 7 6 6 6 6 6 6 6 5
11 11 11 11 11 11 11 11 11 11 11 11 11 11 11 11 11 11 11 11 11 11 11 11 11 12 12 12 12 12 12 12 12 12 12 12 12 12 11 11 11 11 10 10 9 9 9 8 8 8 8 8 7 7 7 7 7 7 7 7 7 7 7 6 6 6 6 6 6 6 6 6 5 5
11 11 11 11 11 11 11 11 11 11 11 11 11 11 11 11 11 11 11 11 11 11 11 11 11 11 12 12 12 12 12 12 12 12 12 12 12 11 11 11 11 11 11 10 10 9 9 8 8 8 8 7 7 7 7 7 7 7 7 7 7 7 6 6 6 6 6 6 5 5 5 5 5 5
11 11 11 11 11 11 11 11 11 11 11 11 11 11 11 11 11 11 11 11 11 11 11 11 11 11 11 11 12 12 12 12 12 12 11 11 11 11 11 11 11 11 11 10 10 9 9 9 8 8 8 8 7 7 7 7 7 7 7 7 7 7 6 6 6 5 5 5 4 4 4 4 4 4
10 10 10 10 10 10 10 10 11 11 11 11 11 11 11 11 11 11 11 11 11 11 11 11 11 11 11 11 11 11 11 11 11 11 11 11 11 11 11 11 11 10 10 10 10 9 9 9 9 8 8 8 8 8 8 8 8 8 7 7 7 7 6 6 5 5 5 4 4 4 4 3 3 3
10 10 10 10 10 10 10 10 10 10 10 10 10 10 10 10 10 10 10 10 10 10 10 10 10 10 10 11 11 11 11 11 11 11 11 11 11 11 10 10 10 10 10 10 10 9 9 9 9 9 9 9 8 8 8 8 8 8 7 7 7 6 6 6 5 5 5 4 4 4 3 3 3 3
10 10 10 10 10 10 10 10 10 10 10 10 10 10 10 10 10 10 10 10 10 10 10 10 10 10 10 10 10 10 10 10 10 10 10 10 10 10 10 10 10 10 10 10 9 9 9 9 9 9 9 9 9 9 9 8 8 8 7 7 7 6 6 6 5 5 5 5 5 4 4 4 4 4
10 10 10 10 10 10 10 10 10 10 10 10 10 10 10 10 10 10 10 10 10 10 10 10 10 10 9 9 10 10 10 10 10 10 10 10 10 10 10 10 10 9 9 9 9 9 9 9 9 9 9 9 9 9 9 8 8 8 8 7 7 6 6 6 6 6 5 5 5 5 4 4 4 4
10 10 10 10 10 10 10 10 10 10 10 10 10 10 10 9 9 9 9 9 9 9 9 9 9 9 9 9 9 9 9 9 9 9 9 9 9 9 9 9 9 9 9 9 9 9 9 9 9 9 9 9 9 8 8 8 8 8 8 7 7 6 6 6 6 6 5 5 5 4 4 4 4 4
10 10 10 10 10 10 10 10 10 10 10 10 10 10 9 9 9 9 9 9 9 9 9 9 9 9 9 9 9 9 9 9 9 9 9 9 9 9 9 9 9 9 9 9 9 9 9 9 9 9 9 9 8 8 8 8 8 8 8 8 7 7 6 6 6 5 5 5 4 4 4 3 3 3
10 10 10 10 10 10 10 10 10 10 10 10 10 10 9 9 9 9 9 9 9 9 9 9 9 9 9 9 9 9 9 9 9 9 9 8 8 8 8 8 8 8 8 8 8 8 8 8 8 8 8 8 8 8 8 8 8 8 8 7 7 7 6 6 6 5 5 5 4 4 3 3 3 3
10 10 10 10 10 10 10 10 10 10 10 10 10 9 9 9 9 9 9 9 9 9 9 9 9 9 8 8 8 8 8 8 8 8 8 8 8 8 8 8 8 8 8 8 8 8 8 8 8 8 8 8 8 8 8 8 8 7 7 7 7 7 7 6 6 6 5 5 4 4 4 4 4 3
10 10 10 10 10 10 10 10 10 10 10 10 9 9 9 9 9 9 9 9 9 9 8 8 8 8 8 8 8 8 8 8 8 8 8 8 7 7 7 7 7 7 7 7 7 8 8 8 8 8 8 8 8 8 8 8 7 7 7 7 7 7 7 6 6 6 6 5 5 5 4 4 4 4
10 10 10 10 10 10 10 10 10 9 9 9 9 9 9 9 9 9 9 9 9 8 8 8 8 8 8 8 8 8 8 8 7 7 7 7 7 7 7 7 7 7 7 7 7 7 7 7 7 7 7 7 7 7 7 7 7 7 7 7 7 6 6 6 6 6 6 5 5 5 5 4 4 4
9 10 10 10 10 10 9 9 9 9 9 9 9 9 9 9 9 9 9 9 8 8 8 8 8 8 8 8 8 7 7 7 7 7 7 7 7 7 7 7 7 6 6 6 6 6 7 7 6 7 7 7 7 7 7 7 7 7 6 6 6 6 6 6 6 6 5 5 5 5 5 4 4 4
Height
3206 3206 3206 3206 3206 3207 3207 3208 3208 3208 3208 3209 3209 3209 3209 3209 3210 3210 3210 3210 3210 3210 3209 3209 3210 3209 3209 3208 3208 3207 3207 3207 3207 3206 3206 3205 3205 3204 3204 3203 3202 3202 3201 3201 3200 3200 3200 3200 3200 3200 3200 3200 3200 3200 3200 3200 3200 3200 3200 3200 3200 3200 3200 3200 3200 3200 3200 3200 3199 3199 3200 3200 3200 3200
3204 3204 3204 3204 3205 3205 3205 3206 3206 3207 3207 3207 3207 3207 3207 3208 3208 3209 3210 3209 3209 3209 3209 3209 3209 3209 3209 3208 3207 3207 3207 3206 3206 3206 3205 3205 3204 3204 3203 3202 3202 3201 3201 3200 3200 3200 3200 3200 3200 3200 3200 3200 3200 3200 3200 3200 3200 3200 3199 3199 3199 3199 3199 3199 3198 3198 3198 3198 3198 3198 3198 3198 3198 3198
3202 3202 3203 3203 3203 3203 3203 3204 3204 3205 3205 3205 3206 3206 3206 3206 3207 3207 3208 3209 3208 3208 3208 3208 3208 3208 3208 3208 3207 3206 3206 3205 3205 3205 3204 3204 3204 3203 3203 3202 3201 3201 3200 3200 3200 3199 3199 3199 3199 3199 3199 3199 3199 3199 3199 3199 3199 3198 3198 3198 3198 3198 3197 3197 3197 3197 3197 3197 3197 3197 3197 3197 3197 3197
3201 3201 3201 3201 3201 3201 3202 3202 3202 3203 3203 3203 3204 3204 3204 3205 3205 3205 3206 3207 3207 3207 3207 3207 3207 3207 3207 3206 3206 3205 3205 3204 3204 3204 3204 3203 3203 3202 3202 3201 3201 3200 3200 3199 3199 3199 3199 3199 3198 3198 3198 3198 3198 3198 3197 3197 3197 3197 3197 3197 3197 3196 3196 3196 3196 3196 3196 3196 3195 3195 3195 3195 3195 3195
3199 3199 3199 3199 3199 3199 3200 3200 3200 3200 3201 3201 3201 3202 3202 3203 3203 3203 3203 3204 3205 3205 3205 3205 3206 3205 3205 3205 3204 3204 3204 3203 3203 3203 3203 3202 3202 3201 3200 3200 3200 3199 3199 3199 3198 3198 3198 3198 3198 3197 3197 3197 3197 3197 3196 3196 3196 3196 3196 3195 3195 3195 3195 3195 3195 3194 3194 3194 3194 3194 3194 3194 3193 3193
3197 3197 3198 3198 3197 3197 3198 3198 3198 3198 3198 3199 3199 3200 3200 3200 3201 3201 3201 3202 3203 3204 3204 3204 3204 3204 3203 3203 3203 3203 3203 3202 3202 3202 3201 3201 3200 3200 3199 3199 3199 3198 3198 3198 3197 3197 3197 3197 3197 3196 3196 3196 3196 3195 3195 3195 3195 3195 3194 3194 3194 3194 3193 3193 3193 3193 3193 3193 3193 3193 3192 3192 3192 3192
3195 3196 3196 3196 3196 3195 3195 3196 3196 3196 3196 3197 3197 3198 3198 3199 3199 3199 3199 3200 3201 3201 3202 3202 3202 3202 3202 3202 3202 3201 3201 3201 3201 3200 3200 3199 3199 3198 3198 3198 3197 3197 3197 3196 3196 3196 3196 3196 3195 3195 3195 3195 3195 3194 3194 3194 3194 3193 3193 3193 3193 3193 3192 3192 3192 3192 3192 3192 3191 3191 3191 3191 3190 3190
3193 3194 3194 3194 3194 3194 3194 3194 3194 3194 3194 3194 3195 3196 3196 3197 3197 3197 3197 3198 3198 3198 3199 3200 3200 3200 3200 3200 3200 3200 3200 3199 3199 3199 3198 3197 3197 3196 3196 3196 3196 3195 3195 3195 3195 3194 3194 3194 3194 3194 3194 3193 3193 3193 3193 3193 3192 3192 3192 3192 3192 3191 3191 3191 3191 3191 3190 3190 3190 3190 3189 3189 3189 3189
3191 3192 3192 3192 3191 3192 3192 3192 3191 3191 3192 3192 3192 3193 3194 3194 3195 3195 3195 3195 3196 3196 3197 3197 3197 3198 3198 3198 3198 3198 3198 3197 3197 3197 3196 3195 3195 3194 3194 3194 3194 3194 3194 3193 3193 3193 3193 3192 3192 3192 3192 3192 3191 3191 3191 3191 3191 3190 3190 3190 3190 3190 3190 3189 3189 3189 3188 3188 3188 3188 3187 3187 3187 3187
3189 3190 3190 3190 3189 3189 3190 3189 3189 3189 3189 3190 3190 3191 3191 3192 3192 3193 3193 3194 3194 3194 3194 3194 3195 3196 3196 3196 3196 3196 3196 3195 3195 3195 3194 3194 3193 3193 3193 3193 3192 3192 3192 3191 3191 3191 3191 3190 3190 3190 3190 3190 3189 3189 3189 3189 3188 3188 3188 3188 3188 3188 3188 3187 3187 3187 3186 3186 3186 3186 3185 3185 3185 3185
3188 3188 3188 3187 3187 3187 3188 3187 3187 3187 3188 3188 3189 3189 3189 3189 3190 3190 3191 3191 3191 3191 3191 3192 3192 3193 3194 3194 3194 3194 3194 3194 3194 3193 3192 3192 3191 3191 3191 3191 3190 3190 3189 3189 3189 3189 3189 3188 3188 3188 3188 3187 3187 3187 3187 3186 3186 3186 3186 3186 3186 3186 3185 3185 3185 3185 3185 3184 3184 3184 3183 3183 3183 3183
3185 3186 3186 3185 3185 3185 3185 3185 3186 3186 3186 3186 3186 3187 3187 3187 3188 3188 3188 3188 3189 3189 3189 3189 3190 3191 3191 3191 3192 3192 3192 3192 3191 3191 3190 3190 3189 3189 3189 3189 3188 3187 3187 3187 3186 3187 3186 3186 3186 3185 3185 3185 3184 3184 3184 3184 3184 3183 3183 3183 3183 3183 3183 3183 3183 3183 3183 3182 3182 3182 3182 3181 3181 3180
3183 3183 3183 3184 3184 3183 3184 3184 3184 3185 3185 3184 3184 3185 3185 3185 3185 3185 3186 3186 3186 3186 3186 3187 3188 3188 3189 3189 3189 3189 3189 3189 3188 3188 3187 3187 3186 3186 3186 3186 3185 3185 3185 3184 3184 3184 3183 3183 3183 3183 3182 3182 3182 3182 3182 3181 3181 3181 3180 3180 3180 3181 3181 3180 3180 3180 3180 3179 3179 3179 3179 3179 3178 3178
3181 3181 3181 3181 3182 3182 3182 3183 3183 3183 3182 3183 3183 3183 3183 3183 3183 3183 3183 3183 3183 3184 3184 3184 3185 3186 3186 3186 3186 3186 3186 3185 3185 3185 3184 3184 3184 3183 3183 3183 3183 3182 3181 3181 3181 3181 3180 3180 3180 3180 3180 3179 3179 3179 3179 3178 3178 3178 3177 3177 3178 3178 3178 3178 3177 3177 3177 3176 3176 3176 3176 3176 3176 3175
3179 3179 3179 3180 3180 3180 3180 3181 3181 3181 3181 3181 3181 3181 3181 3181 3181 3181 3181 3181 3181 3181 3182 3182 3182 3183 3183 3183 3183 3182 3182 3182 3182 3182 3182 3181 3181 3180 3180 3181 3180 3179 3178 3178 3179 3178 3178 3177 3177 3177 3177 3176 3176 3176 3176 3175 3175 3175 3175 3175 3175 3175 3175 3175 3174 3174 3174 3173 3173 3172 3173 3173 3173 3173
3177 3177 3178 3178 3178 3178 3178 3179 3179 3179 3179 3179 3179 3179 3179 3179 3178 3178 3179 3179 3179 3179 3179 3180 3180 3180 3180 3181 3180 3180 3180 3180 3179 3179 3179 3179 3178 3178 3178 3178 3177 3177 3176 3175 3176 3176 3175 3175 3174 3174 3174 3173 3173 3172 3172 3172 3172 3171 3171 3172 3172 3172 3172 3172 3171 3171 3171 3170 3169 3169 3169 3170 3170 3170
3175 3175 3175 3176 3176 3176 3176 3177 3177 3176 3176 3176 3176 3176 3177 3177 3177 3177 3177 3177 3177 3177 3177 3177 3178 3178 3178 3178 3178 3177 3177 3177 3177 3176 3176 3175 3175 3175 3175 3175 3174 3174 3173 3172 3172 3173 3173 3172 3171 3171 3170 3169 3169 3169 3169 3170 3169 3168 3168 3168 3168 3168 3168 3168 3168 3168 3167 3167 3166 3166 3165 3165 3166 3166
3172 3173 3173 3173 3174 3174 3174 3174 3174 3174 3174 3174 3174 3174 3174 3174 3175 3175 3175 3175 3175 3175 3175 3175 3175 3175 3175 3175 3175 3175 3174 3174 3174 3173 3172 3172 3172 3172 3172 3172 3171 3171 3170 3169 3168 3169 3170 3169 3168 3167 3167 3166 3166 3166 3166 3167 3166 3165 3164 3164 3165 3165 3164 3164 3164 3164 3164 3163 3163 3162 3162 3161 3162 3162
3170 3170 3171 3171 3172 3172 3171 3171 3171 3172 3172 3172 3172 3172 3172 3172 3172 3172 3172 3172 3172 3172 3172 3172 3172 3172 3171 3172 3172 3172 3171 3171 3170 3170 3169 3169 3169 3168 3168 3168 3168 3167 3167 3165 3164 3164 3166 3166 3165 3164 3164 3163 3163 3163 3163 3163 3162 3162 3161 3162 3162 3161 3159 3160 3160 3160 3160 3159 3159 3158 3158 3158 3158 3158
3167 3168 3168 3169 3169 3169 3169 3169 3169 3169 3169 3169 3170 3170 3170 3170 3170 3170 3170 3170 3170 3170 3170 3170 3170 3169 3169 3169 3169 3168 3168 3167 3166 3166 3166 3166 3165 3164 3164 3164 3164 3163 3163 3162 3161 3160 3161 3161 3161 3161 3161 3161 3161 3160 3160 3159 3159 3158 3158 3158 3159 3157 3156 3156 3156 3156 3155 3155 3154 3154 3155 3154 3154 3154
3165 3165 3166 3166 3166 3166 3167 3167 3167 3167 3167 3167 3167 3167 3168 3168 3168 3168 3168 3167 3167 3167 3167 3167 3167 3167 3166 3166 3166 3165 3164 3163 3163 3162 3162 3162 3161 3160 3160 3160 3160 3159 3159 3158 3157 3157 3157 3157 3157 3157 3157 3157 3157 3157 3156 3155 3155 3155 3154 3154 3154 3153 3152 3152 3152 3152 3151 3151 3151 3151 3151 3151 3150 3150
3162 3163 3163 3163 3164 3164 3164 3165 3165 3165 3165 3164 3164 3165 3165 3165 3165 3165 3165 3165 3164 3164 3164 3164 3164 3164 3163 3162 3162 3162 3161 3160 3159 3159 3159 3158 3158 3157 3157 3156 3156 3156 3156 3155 3154 3154 3154 3154 3153 3153 3153 3153 3154 3154 3153 3152 3151 3151 3151 3150 3150 3150 3149 3149 3149 3148 3148 3147 3147 3147 3147 3147 3147 3147
3160 3160 3161 3161 3161 3162 3162 3162 3162 3163 3162 3162 3162 3162 3162 3162 3162 3162 3162 3161 3161 3161 3161 3161 3161 3161 3160 3159 3158 3158 3158 3157 3156 3156 3155 3155 3155 3154 3154 3153 3153 3153 3153 3152 3151 3151 3151 3151 3150 3150 3149 3149 3150 3150 3150 3149 3148 3147 3147 3146 3146 3146 3146 3146 3146 3145 3144 3144 3144 3143 3143 3143 3143 3143
3158 3159 3159 3159 3159 3160 3160 3160 3160 3160 3160 3160 3160 3160 3160 3160 3159 3159 3158 3158 3158 3158 3157 3157 3157 3157 3157 3156 3155 3155 3154 3154 3153 3153 3152 3152 3151 3151 3151 3150 3150 3150 3149 3149 3148 3148 3148 3148 3148 3147 3146 3146 3146 3146 3146 3146 3145 3144 3144 3144 3143 3143 3143 3143 3143 3142 3141 3141 3141 3140 3140 3140 3140 3140
3157 3157 3157 3158 3158 3158 3158 3158 3158 3158 3158 3158 3158 3157 3157 3157 3157 3156 3155 3155 3155 3154 3154 3154 3154 3153 3153 3152 3152 3151 3151 3150 3150 3150 3149 3149 3148 3148 3147 3147 3146 3146 3146 3145 3145 3145 3145 3145 3145 3144 3143 3143 3142 3143 3143 3142 3142 3141 3141 3141 3140 3140 3139 3139 3138 3138 3138 3138 3138 3138 3137 3137 3137 3137
3155 3155 3156 3156 3156 3156 3156 3156 3156 3156 3156 3156 3155 3155 3155 3154 3154 3153 3153 3152 3152 3151 3151 3151 3150 3150 3150 3149 3148 3148 3148 3147 3147 3147 3146 3146 3146 3145 3145 3144 3144 3144 3143 3142 3142 3142 3142 3142 3141 3141 3140 3140 3139 3139 3140 3140 3139 3139 3138 3138 3137 3136 3136 3135 3135 3135 3135 3135 3135 3135 3134 3134 3134 3134
3153 3154 3154 3154 3154 3154 3154 3154 3154 3154 3154 3154 3153 3153 3152 3152 3151 3151 3151 3150 3149 3149 3148 3148 3147 3147 3146 3146 3146 3145 3145 3144 3144 3144 3144 3143 3143 3143 3142 3142 3142 3141 3141 3140 3140 3139 3139 3139 3138 3138 3137 3137 3137 3137 3137 3137 3137 3136 3136 3135 3135 3134 3133 3133 3132 3131 3131 3131 3131 3131 3131 3132 3132 3131
3152 3152 3152 3152 3152 3153 3153 3153 3152 3152 3152 3152 3151 3151 3150 3150 3150 3149 3149 3148 3147 3147 3146 3146 3145 3145 3144 3144 3143 3143 3143 3142 3142 3141 3141 3141 3141 3141 3140 3140 3139 3139 3138 3138 3137 3137 3136 3136 3136 3135 3134 3134 3134 3134 3134 3134 3134 3134 3133 3133 3132 3131 3131 3131 3130 3129 3129 3129 3128 3128 3129 3129 3129 3129
3150 3150 3151 3151 3151 3151 3151 3151 3151 3151 3150 3150 3150 3149 3149 3148 3148 3147 3147 3146 3145 3145 3144 3144 3144 3143 3143 3142 3142 3141 3141 3140 3140 3139 3139 3139 3139 3138 3138 3137 3137 3136 3136 3135 3135 3135 3135 3134 3133 3133 3132 3132 3131 3131 3131 3131 3131 3131 3130 3130 3129 3129 3128 3128 3128 3127 3127 3126 3126 3126 3126 3126 3126 3126
3148 3149 3149 3149 3150 3150 3150 3150 3149 3149 3149 3149 3148 3148 3147 3147 3146 3146 3145 3144 3144 3143 3143 3142 3142 3142 3141 3141 3140 3140 3139 3139 3138 3138 3137 3137 3136 3136 3135 3135 3134 3134 3133 3133 3133 3133 3132 3132 3131 3131 3130 3130 3129 3129 3129 3128 3128 3127 3127 3127 3126 3126 3125 3125 3125 3125 3124 3124 3124 3124 3124 3123 3123 3123
3147 3147 3148 3148 3148 3148 3148 3148 3148 3148 3148 3148 3147 3147 3146 3146 3145 3144 3144 3143 3142 3142 3141 3141 3140 3140 3139 3139 3139 3138 3138 3137 3137 3136 3136 3135 3135 3134 3133 3133 3133 3132 3131 3131 3131 3130 3130 3129 3129 3128 3128 3128 3127 3127 3126 3126 3125 3124 3124 3123 3123 3123 3122 3122 3122 3122 3122 3121 3121 3121 3121 3121 3121 3121
3145 3146 3146 3147 3147 3147 3147 3147 3147 3147 3147 3147 3146 3146 3145 3145 3144 3143 3142 3142 3141 3141 3140 3140 3139 3138 3138 3137 3137 3137 3136 3136 3135 3135 3134 3133 3133 3132 3131 3131 3130 3130 3129 3129 3128 3128 3128 3127 3126 3126 3126 3125 3125 3124 3124 3123 3122 3121 3121 3120 3120 3119 3119 3119 3119 3119 3119 3119 3118 3118 3118 3118 3118 3118
3144 3145 3145 3146 3146 3146 3146 3146 3146 3146 3146 3145 3145 3144 3144 3143 3142 3142 3141 3141 3140 3140 3139 3138 3138 3137 3137 3136 3136 3135 3134 3134 3134 3133 3132 3132 3131 3130 3130 3129 3129 3128 3128 3127 3126 3126 3125 3125 3124 3123 3123 3123 3122 3122 3121 3120 3119 3118 3118 3117 3116 3116 3116 3116 3116 3115 3115 3115 3116 3116 3116 3116 3116 3116
3144 3144 3144 3145 3145 3145 3145 3145 3145 3145 3144 3144 3143 3143 3142 3142 3141 3140 3140 3139 3139 3138 3137 3137 3136 3136 3135 3134 3134 3133 3133 3132 3132 3131 3131 3130 3130 3129 3128 3128 3127 3127 3126 3125 3125 3124 3123 3122 3122 3121 3120 3120 3119 3119 3118 3117 3117 3116 3115 3115 3114 3113 3113 3113 3113 3113 3113 3113 3113 3113 3113 3113 3113 3113
3143 3143 3144 3144 3144 3144 3144 3144 3144 3143 3143 3142 3142 3141 3141 3140 3139 3139 3138 3138 3137 3137 3136 3135 3134 3134 3133 3133 3132 3132 3131 3131 3131 3130 3130 3129 3129 3128 3127 3127 3126 3126 3125 3124 3124 3123 3122 3121 3120 3119 3119 3118 3117 3116 3116 3115 3114 3114 3113 3112 3112 3111 3111 3111 3111 3110 3110 3110 3111 3111 3111 3111 3111 3111
3142 3143 3143 3143 3143 3143 3143 3143 3142 3142 3141 3141 3140 3140 3139 3139 3138 3138 3137 3136 3136 3135 3135 3134 3133 3133 3132 3132 3131 3131 3130 3130 3130 3129 3129 3128 3128 3127 3127 3126 3126 3125 3124 3123 3122 3122 3121 3120 3119 3118 3117 3116 3115 3115 3114 3113 3112 3112 3111 3110 3110 3109 3109 3109 3108 3108 3108 3108 3108 3109 3109 3108 3108 3108
3142 3142 3142 3142 3142 3142 3142 3142 3141 3141 3140 3140 3139 3139 3138 3137 3137 3136 3136 3135 3135 3134 3133 3133 3132 3132 3131 3131 3130 3130 3129 3129 3128 3128 3127 3127 3127 3126 3126 3125 3125 3124 3123 3122 3121 3121 3120 3119 3118 3117 3116 3115 3114 3113 3112 3112 3111 3110 3109 3109 3108 3108 3107 3107 3106 3106 3106 3106 3106 3106 3106 3105 3105 3106
3141 3141 3141 3141 3141 3141 3140 3140 3140 3140 3139 3138 3138 3137 3137 3136 3135 3135 3134 3134 3133 3132 3132 3131 3131 3130 3130 3129 3129 3129 3128 3128 3127 3127 3126 3126 3126 3125 3125 3124 3124 3123 3122 3121 3120 3119 3119 3118 3117 3116 3115 3114 3113 3112 3111 3110 3109 3109 3108 3107 3107 3106 3105 3105 3105 3104 3104 3104 3103 3103 3104 3103 3103 3104
3140 3140 3139 3139 3139 3139 3139 3139 3139 3138 3138 3137 3137 3136 3136 3135 3134 3133 3133 3132 3131 3131 3130 3130 3129 3129 3128 3128 3127 3127 3127 3126 3126 3125 3125 3125 3124 3124 3124 3123 3122 3122 3121 3120 3119 3118 3117 3116 3115 3114 3113 3112 3111 3110 3110 3109 3108 3107 3107 3106 3105 3104 3104 3103 3103 3102 3102 3102 3102 3102 3102 3102 3102 3102
3138 3138 3138 3138 3138 3138 3138 3138 3137 3137 3137 3137 3136 3135 3135 3134 3133 3132 3131 3131 3130 3129 3129 3128 3127 3127 3126 3126 3126 3125 3125 3124 3124 3124 3124 3123 3123 3122 3122 3121 3121 3120 3119 3118 3118 3117 3116 3115 3114 3113 3112 3111 3110 3109 3108 3107 3106 3106 3105 3104 3104 3103 3102 3101 3101 3101 3100 3100 3100 3100 3100 3100 3100 3100
3136 3136 3136 3136 3136 3136 3136 3136 3136 3136 3136 3135 3135 3134 3133 3132 3132 3131 3130 3130 3129 3128 3127 3127 3126 3125 3125 3124 3124 3123 3123 3122 3122 3122 3121 3121 3121 3120 3120 3120 3119 3118 3117 3116 3116 3115 3114 3113 3112 3111 3110 3109 3108 3107 3106 3105 3104 3104 3103 3103 3102 3101 3101 3100 3099 3099 3098 3098 3098 3098 3098 3098 3098 3098
3134 3134 3134 3134 3134 3134 3134 3134 3134 3134 3134 3133 3133 3132 3131 3131 3130 3130 3129 3128 3128 3127 3126 3125 3124 3124 3123 3122 3122 3121 3121 3120 3120 3120 3119 3119 3118 3118 3118 3117 3117 3116 3115 3114 3113 3113 3112 3111 3110 3109 3108 3107 3106 3105 3104 3103 3103 3102 3101 3101 3100 3099 3099 3098 3097 3097 3097 3096 3096 3096 3096 3095 3096 3096
3132 3132 3132 3132 3132 3132 3132 3132 3132 3132 3131 3131 3130 3130 3129 3129 3128 3128 3127 3127 3126 3125 3124 3123 3123 3122 3121 3121 3120 3120 3119 3119 3118 3118 3117 3117 3116 3116 3115 3115 3114 3113 3113 3112 3111 3110 3109 3108 3108 3107 3106 3105 3104 3103 3102 3101 3100 3100 3099 3098 3098 3097 3097 3096 3096 3095 3095 3094 3094 3094 3094 3094 3093 3093
3130 3130 3130 3130 3130 3130 3130 3130 3129 3129 3128 3128 3127 3127 3127 3126 3126 3125 3125 3124 3124 3123 3122 3122 3121 3120 3119 3119 3118 3118 3117 3117 3116 3116 3115 3115 3114 3114 3113 3112 3112 3111 3110 3110 3109 3108 3107 3106 3105 3104 3104 3103 3102 3101 3100 3099 3098 3097 3097 3096 3096 3095 3095 3094 3093 3093 3092 3092 3092 3092 3091 3091 3091 3090
3127 3127 3127 3127 3127 3127 3127 3127 3126 3126 3125 3125 3125 3124 3124 3123 3123 3122 3122 3121 3121 3120 3120 3119 3119 3118 3117 3117 3116 3116 3115 3115 3114 3114 3113 3112 3112 3111 3110 3110 3109 3108 3108 3107 3106 3105 3104 3104 3103 3102 3101 3100 3100 3099 3098 3097 3096 3095 3094 3094 3093 3093 3093 3092 3091 3091 3090 3089 3089 3089 3089 3088 3088 3088
Wind_Speed
17 17 16 16 15 16 15 14 12 10 9 10 11 12 12 10 10 9 9 10 11 10 10 10 9 8 8 7 7 6 5 5 5 6 7 7 8 8 8 7 7 7 7 6 6 5 5 4 4 3 3 3 3 4 5 6 7 8 8 9 9 10 10 10 10 11 11 11 12 13 14 14 14 14
16 16 15 15 15 15 16 15 14 13 11 12 13 14 13 12 11 10 9 10 11 12 10 10 9 8 9 9 8 7 6 5 5 6 7 7 7 8 9 9 8 7 7 7 6 6 6 5 5 4 4 4 4 5 5 5 6 6 6 7 7 8 9 9 9 10 11 11 11 11 11 11 11 12
15 15 15 14 14 15 15 15 15 15 14 14 14 15 14 13 13 12 11 10 12 13 12 10 10 9 9 10 10 8 7 6 6 6 7 7 8 9 9 9 9 9 8 8 7 7 7 7 6 5 5 5 5 5 6 6 7 7 7 7 8 8 8 8 8 9 10 10 10 9 10 10 10 11
15 15 15 15 14 14 14 15 15 16 16 16 15 15 15 15 14 14 13 12 12 14 13 12 11 11 10 10 10 10 9 8 8 8 7 8 9 9 10 9 9 9 9 9 8 8 8 8 8 7 7 7 7 7 7 7 7 8 8 9 9 9 9 9 9 10 10 10 10 10 10 11 12 12
17 17 16 15 15 15 15 15 16 17 17 17 17 16 16 16 15 15 15 14 13 14 15 14 13 12 11 11 11 11 10 9 9 10 9 9 9 9 10 9 10 10 10 10 9 9 9 8 8 8 9 8 8 8 9 9 8 9 9 9 10 10 10 11 11 11 11 11 11 12 12 12 13 13
18 18 17 16 16 16 16 16 17 18 18 18 17 17 17 17 17 17 16 15 14 14 14 15 14 14 13 12 11 11 11 10 10 11 11 11 11 10 10 10 10 10 11 11 11 10 10 10 9 9 9 9 9 10 10 10 10 10 11 11 11 11 11 12 12 12 13 13 13 13 13 13 14 14
19 19 18 17 17 17 16 16 17 18 18 18 18 18 18 18 18 17 17 16 15 14 15 15 15 15 14 12 12 11 11 11 11 12 13 13 13 12 11 11 11 11 12 12 12 12 12 11 10 10 9 10 10 11 11 11 12 12 12 12 12 12 13 13 13 13 14 14 14 14 14 15 15 15
19 19 18 18 18 17 16 16 17 17 18 19 19 18 18 18 18 18 17 17 16 16 15 15 16 15 15 14 13 12 12 12 13 13 14 14 14 14 13 13 13 13 13 13 14 14 14 13 13 12 12 11 11 12 12 12 12 13 13 13 13 13 14 14 14 14 14 15 15 15 15 15 15 15
18 18 18 18 19 17 16 16 16 16 17 18 19 18 18 19 18 18 17 17 17 17 16 16 16 16 16 16 16 15 15 15 15 14 14 15 16 16 16 15 15 15 15 14 15 15 15 15 15 15 15 14 14 14 14 14 14 14 14 14 14 14 14 14 15 15 15 15 16 16 16 15 15 15
18 17 18 18 18 16 15 14 15 15 16 17 18 18 18 19 18 17 17 17 18 18 18 18 17 16 17 17 17 17 17 17 16 16 15 16 18 19 18 17 17 17 16 15 15 15 15 15 15 16 17 17 17 16 16 16 16 16 16 16 16 16 15 15 15 15 16 16 16 16 16 16 17 17
17 17 17 18 17 16 14 14 14 15 15 15 16 17 18 18 18 17 17 18 18 19 19 19 18 17 17 17 17 17 18 18 17 18 18 18 19 20 20 18 18 18 18 17 16 16 15 16 16 16 17 18 19 19 18 18 18 19 19 19 18 18 18 18 17 17 17 17 17 17 17 18 18 18
16 16 17 17 16 15 13 13 14 14 13 14 15 16 16 17 17 17 18 18 19 20 20 20 19 18 17 17 17 17 18 18 18 19 20 20 20 20 20 19 19 19 19 19 18 17 17 17 17 18 18 19 20 20 20 20 20 20 21 21 21 21 20 20 20 19 19 19 19 19 19 20 20 19
15 16 16 16 15 14 13 13 13 13 13 13 14 15 15 15 15 16 16 17 18 19 19 19 18 18 17 17 17 17 17 17 18 19 20 20 20 20 19 18 18 18 19 19 19 19 19 19 19 20 20 20 21 21 20 21 21 22 22 22 22 22 22 22 22 22 21 21 21 21 21 21 20 20
15 16 15 15 14 13 13 13 13 13 13 13 14 14 14 14 14 14 14 15 16 17 17 18 18 17 16 16 16 16 16 17 18 18 19 19 19 19 18 16 17 18 19 20 20 20 20 20 20 21 20 21 21 21 21 22 22 22 23 23 23 23 23 23 23 23 23 23 23 22 22 21 21 21
15 16 15 14 14 13 13 13 13 13 14 14 13 14 14 14 13 14 14 14 15 15 15 16 16 15 14 14 15 16 16 17 17 17 17 18 18 18 17 16 16 18 20 20 20 20 21 21 21 21 21 21 22 22 22 22 23 23 23 23 24 23 24 24 24 24 24 24 24 24 24 24 24 24
15 16 15 13 13 14 14 14 14 15 15 15 15 15 15 15 15 15 15 15 15 15 16 16 15 15 14 13 14 16 16 17 17 17 17 17 18 18 17 17 17 18 19 20 19 19 20 21 21 21 21 22 22 23 23 23 24 24 24 24 24 24 24 25 25 25 26 26 26 26 27 26 25 25
15 15 14 13 14 15 14 14 15 16 16 17 17 16 16 16 16 16 16 16 16 16 17 16 16 16 16 15 15 17 17 17 17 18 18 18 18 17 17 16 16 16 18 19 20 18 18 20 22 22 23 23 24 24 24 24 24 25 25 25 25 25 25 25 25 26 27 27 28 28 29 27 25 26
15 15 15 15 16 16 15 14 15 16 17 18 18 18 18 18 18 18 18 18 18 18 18 18 17 18 18 17 17 18 18 18 19 19 19 19 19 19 18 18 18 18 19 21 22 21 19 20 22 23 23 24 24 25 25 24 24 25 26 26 25 26 26 26 26 27 27 28 28 29 30 29 27 27
15 15 16 16 16 15 14 15 16 17 18 18 19 19 19 19 19 19 19 20 20 20 19 19 18 19 19 19 20 20 21 21 21 22 22 22 22 23 22 21 21 22 22 24 26 25 23 23 24 24 24 24 24 24 24 25 25 25 26 26 25 26 28 27 27 28 28 29 29 28 28 28 27 26
14 15 15 15 15 15 15 16 17 18 18 19 19 19 18 18 19 19 20 21 21 21 21 20 20 21 22 22 23 23 23 24 24 24 23 23 24 25 24 23 23 24 25 26 27 27 26 24 24 23 24 24 24 24 24 24 24 23 24 24 24 26 27 27 27 28 29 28 28 28 27 26 25 24
13 14 14 14 15 16 17 17 17 18 19 20 20 19 19 19 19 20 21 22 22 23 23 22 22 23 24 24 24 24 25 25 25 25 24 24 24 25 24 23 23 24 25 25 26 26 25 24 23 22 22 21 21 21 22 23 23 23 23 23 23 25 25 25 26 27 28 28 29 28 27 25 24 23
14 14 14 15 16 17 17 17 18 19 20 21 21 21 21 20 20 21 21 22 23 23 23 23 23 23 24 24 25 24 25 25 25 25 24 24 24 24 23 23 24 24 24 24 25 25 24 23 22 21 21 21 20 21 22 24 24 24 24 24 24 24 24 24 25 26 26 26 26 25 25 24 22 22
14 14 14 15 16 17 17 18 18 19 20 20 21 21 21 20 20 21 21 22 23 23 23 23 23 23 24 25 25 25 25 25 25 25 25 24 24 24 24 25 25 24 23 23 24 23 23 22 21 22 23 23 23 23 23 24 24 23 22 22 22 22 21 20 20 20 21 21 21 21 21 21 21 20
15 15 15 15 16 16 16 17 17 18 18 19 19 20 20 20 20 21 22 23 23 23 23 23 23 24 24 25 25 26 26 26 26 26 25 25 25 25 25 25 25 24 23 23 23 22 22 21 22 23 24 25 25 23 23 22 22 22 22 21 20 20 19 19 18 17 17 18 19 19 19 20 20 20
14 14 14 14 14 15 15 16 16 17 17 18 19 19 20 20 20 21 22 23 23 23 24 24 23 23 23 23 24 24 24 25 25 25 25 25 25 25 25 24 24 23 23 23 22 22 22 22 22 23 24 24 24 22 21 21 21 21 21 21 20 20 21 21 20 20 19 18 18 19 19 19 18 18
13 13 13 13 14 14 15 15 16 17 17 18 18 19 19 19 20 20 21 22 23 23 22 22 22 21 21 21 21 21 22 22 22 23 23 23 23 23 23 23 22 22 22 22 22 22 23 23 23 23 23 23 22 21 20 20 20 20 20 20 20 20 20 20 20 19 19 18 18 17 16 16 15 16
12 12 13 13 13 14 14 14 15 15 16 16 16 17 17 18 18 19 19 20 20 20 19 19 19 18 18 18 18 18 18 19 20 20 21 20 21 21 20 20 20 20 20 21 22 22 23 23 22 22 22 22 21 21 21 20 20 20 19 18 18 18 18 18 18 18 17 15 15 14 14 14 14 15
10 11 11 12 12 12 12 13 13 14 14 14 15 15 16 16 16 16 16 16 16 16 16 16 16 16 16 16 15 15 16 17 17 18 18 18 18 18 18 18 18 18 18 19 20 21 22 22 22 21 21 21 21 21 21 21 20 20 19 18 18 17 17 16 16 15 14 14 13 14 14 14 14 14
8 9 10 10 10 11 11 11 12 12 12 12 12 13 12 12 12 12 12 12 12 13 13 13 14 14 14 13 13 13 13 14 15 16 16 15 15 15 15 16 16 17 17 18 19 20 20 20 20 20 20 20 21 21 22 22 21 20 20 19 19 19 18 16 15 14 14 14 14 14 14 14 14 14
7 8 8 9 9 9 9 9 9 9 9 9 10 10 9 9 9 10 9 9 9 10 10 10 10 10 10 10 10 10 10 11 12 12 13 13 13 13 14 14 15 16 17 17 18 19 19 19 19 19 19 19 20 20 21 21 21 21 21 20 19 18 19 18 16 16 15 15 14 15 15 15 15 15
6 6 7 7 7 7 8 8 8 8 8 8 8 8 9 9 9 9 9 9 9 9 9 8 8 8 7 7 8 8 8 9 10 10 11 12 12 12 13 13 14 15 16 17 17 18 18 19 19 18 18 19 19 19 20 21 21 21 21 21 19 19 19 19 18 17 17 17 16 16 16 16 16 16
5 5 5 6 6 6 7 7 8 8 8 9 9 9 9 9 9 10 10 9 9 9 9 9 9 9 8 8 8 8 8 9 9 10 10 11 11 12 12 13 13 14 15 16 16 16 17 18 18 18 18 18 19 19 20 20 20 20 20 20 20 20 20 19 19 18 19 19 18 18 17 16 16 16
3 4 4 4 5 5 6 7 7 8 8 9 9 9 9 10 10 10 10 10 10 10 10 10 10 10 10 9 9 9 9 9 9 9 10 10 11 11 11 12 13 13 14 15 15 15 15 16 16 16 17 17 17 17 17 18 18 18 18 18 19 19 19 19 18 18 18 18 17 17 16 15 14 14
3 3 3 4 4 5 6 7 7 8 8 9 9 9 10 10 11 11 11 11 10 10 10 10 10 10 11 11 10 10 10 10 9 9 9 9 9 10 10 11 12 13 13 14 14 14 14 13 13 14 14 15 15 15 15 15 16 16 15 15 15 15 15 15 16 16 16 16 16 16 14 13 12 12
3 4 4 4 5 5 6 7 7 8 8 9 10 10 11 11 11 11 12 12 12 12 11 11 10 10 11 11 11 11 10 10 9 9 8 8 8 9 10 11 11 12 12 12 13 13 12 12 12 12 13 13 14 15 15 15 15 16 15 14 13 12 11 12 13 14 14 14 15 14 13 13 14 15
3 4 5 5 5 6 7 7 8 8 8 9 10 10 11 11 11 11 12 12 12 12 12 12 11 11 11 11 11 11 11 10 10 9 8 8 8 9 10 11 11 12 12 13 13 13 13 13 13 13 13 14 15 16 16 16 16 16 15 15 14 13 11 11 12 13 13 13 14 15 15 17 17 17
3 4 5 5 6 7 8 8 9 9 9 9 9 9 10 10 11 11 11 11 12 12 12 12 12 12 12 12 12 11 11 10 10 9 9 8 9 9 10 11 12 13 13 14 14 14 14 14 14 15 15 15 16 16 16 16 16 16 16 15 15 14 13 13 13 14 14 15 15 15 16 17 16 15
5 5 5 6 7 8 9 10 10 10 10 10 10 10 10 10 11 11 11 11 12 12 11 12 12 12 12 12 12 12 11 11 10 10 9 10 10 10 11 11 12 13 13 14 14 15 15 15 15 16 16 16 16 17 16 16 16 16 16 16 16 15 15 15 15 14 14 14 14 14 15 15 14 13
8 8 8 7 8 9 9 10 11 11 11 11 11 11 10 10 11 11 11 12 12 12 12 12 12 12 12 13 13 12 12 12 11 10 10 11 11 12 12 12 13 13 13 14 15 15 16 16 16 16 17 17 17 16 16 16 16 16 16 16 16 16 16 16 15 14 14 14 14 14 14 14 14 13
11 11 11 11 10 10 10 11 11 12 12 12 12 12 11 11 11 11 12 12 12 12 12 12 12 13 13 13 13 13 13 13 13 12 12 12 12 13 13 14 14 14 14 15 15 16 16 16 17 17 17 18 17 17 17 17 16 16 16 16 16 16 17 16 16 15 15 15 15 14 14 14 15 14
12 12 13 13 13 12 12 12 13 13 13 13 13 13 13 13 13 12 13 13 13 13 12 12 13 13 13 13 13 13 13 13 14 14 14 14 14 14 15 15 15 15 16 16 16 17 17 17 17 17 18 18 18 18 18 18 17 16 16 16 16 16 17 17 17 16 16 16 16 15 15 16 15 15
13 13 13 14 14 14 14 14 14 15 15 15 15 15 14 14 14 14 14 14 14 14 13 13 13 13 13 14 14 14 14 14 14 15 15 15 15 16 16 16 17 17 17 17 18 18 18 19 19 18 18 18 18 18 18 18 17 17 16 16 16 17 17 17 17 16 16 16 16 17 17 17 16 15
15 15 15 16 16 15 15 15 15 16 16 16 16 16 16 15 15 15 15 15 16 15 15 15 15 14 14 14 14 14 15 15 15 15 15 16 16 16 17 18 18 18 19 19 19 20 20 20 20 20 20 19 19 19 19 19 18 17 17 17 16 17 17 17 17 16 16 16 16 16 17 17 16 16
19 18 19 19 19 19 18 18 17 17 17 17 18 18 18 17 17 17 17 17 17 17 17 16 16 16 16 16 15 15 16 16 16 16 16 16 17 17 18 18 19 19 19 20 20 21 21 21 21 22 21 21 21 20 20 20 19 19 18 18 18 17 17 18 18 17 16 16 16 16 16 16 16 17
22 22 22 22 22 21 21 20 19 19 19 19 19 19 20 20 20 19 19 18 18 19 19 18 18 18 18 17 17 17 17 17 17 17 17 17 18 18 19 20 20 20 21 21 21 22 22 22 22 22 23 22 22 22 21 21 21 21 20 20 19 19 18 18 18 18 17 17 17 16 16 17 17 17
Wind_Direction
268 270 273 275 277 277 276 273 268 263 259 259 260 262 264 264 264 266 267 276 285 287 289 295 300 303 306 310 316 328 339 346 342 334 329 330 332 333 334 340 346 344 342 351 1 5 3 0 355 345 330 314 297 280 271 265 265 267 269 271 271 270 270 270 269 267 267 266 266 267 268 269 271 272
268 270 271 273 275 276 274 271 266 260 255 254 254 255 257 258 260 257 249 256 271 276 278 283 286 291 299 304 307 314 322 325 325 320 317 320 324 325 325 327 331 333 331 333 339 341 340 339 339 338 334 326 320 310 299 291 287 282 279 276 273 271 272 270 266 266 267 267 269 272 273 273 272 271
269 270 271 273 275 276 276 273 269 264 257 253 252 252 253 254 257 257 249 245 258 268 272 276 279 282 292 300 301 301 306 310 310 312 313 317 320 320 317 315 318 322 324 326 327 325 323 320 318 317 316 313 312 306 300 299 296 292 288 284 280 278 277 274 271 269 271 272 273 273 271 269 267 267
270 271 273 275 277 278 278 275 271 267 261 255 252 251 251 252 255 257 256 249 249 260 268 271 274 278 284 292 291 290 293 298 303 309 315 318 320 319 313 306 305 309 313 316 317 314 311 307 305 303 299 298 297 295 293 292 290 288 287 285 284 282 278 276 274 273 272 272 269 267 264 264 263 264
270 273 275 277 279 279 277 275 272 268 263 259 254 251 249 250 252 254 257 254 247 252 260 265 269 274 278 281 281 282 287 292 300 309 312 313 314 315 313 307 302 301 304 306 306 305 302 298 298 298 296 294 293 291 290 289 288 287 285 284 283 280 277 276 275 274 273 270 268 266 264 264 264 265
270 273 275 277 278 277 274 272 271 269 266 263 259 255 252 251 252 254 256 257 254 250 255 262 269 275 279 279 277 278 285 292 300 305 305 305 307 310 311 311 307 303 301 299 296 294 294 292 291 292 293 293 291 290 288 287 286 284 283 282 281 279 279 278 276 275 274 272 270 268 266 266 265 266
267 271 274 276 276 274 273 272 269 268 268 266 263 260 257 255 255 256 257 259 260 255 254 259 266 271 276 278 277 279 283 290 297 300 300 300 303 305 305 304 304 303 301 298 295 292 290 288 287 286 286 288 288 288 288 287 286 284 283 282 282 282 282 283 282 281 279 276 273 270 268 267 266 267
265 270 273 275 275 275 275 273 271 268 267 267 265 263 261 259 258 258 259 259 260 259 257 258 261 266 270 272 274 276 278 283 290 293 293 296 298 300 299 298 297 297 298 298 297 294 291 287 285 285 285 285 286 287 288 288 286 284 282 281 281 282 282 284 285 284 283 282 279 275 273 271 270 270
265 269 271 272 274 276 276 275 272 269 267 266 266 265 264 264 263 262 262 262 263 263 262 261 262 264 268 270 273 275 276 279 283 285 286 289 292 293 294 295 295 295 296 296 297 297 294 290 288 287 288 289 289 288 288 287 286 284 282 281 280 279 278 279 278 278 279 279 279 278 276 274 273 272
264 268 269 269 272 275 277 277 275 273 271 269 268 268 269 269 269 268 267 267 268 268 267 267 267 268 270 272 274 276 276 277 278 279 281 283 286 288 290 292 293 292 292 293 294 295 295 292 289 286 287 289 290 289 288 287 286 285 283 281 279 277 276 275 275 275 275 275 276 276 275 274 274 274
263 266 267 268 272 276 278 279 278 276 276 276 275 274 273 273 273 272 269 268 268 269 270 271 271 271 272 274 274 274 275 276 277 277 278 280 283 285 287 287 288 288 288 289 290 291 292 290 287 283 282 283 284 285 285 286 286 285 283 281 280 278 278 277 276 276 276 276 275 274 273 274 273 274
259 264 266 269 273 277 280 280 279 279 279 278 276 275 275 275 275 273 270 268 268 269 271 272 272 272 272 272 273 273 274 275 275 275 277 280 282 283 285 287 287 286 285 285 287 288 287 285 282 281 281 281 281 281 282 284 284 284 282 281 280 280 280 280 279 278 278 278 277 276 275 275 275 276
257 261 264 268 272 276 279 278 277 277 277 276 274 273 273 274 274 272 270 268 268 269 271 272 274 275 275 274 273 272 272 273 273 274 276 278 279 281 284 287 288 286 283 283 285 286 284 282 282 282 283 283 282 282 283 283 283 281 281 280 281 281 280 280 280 280 279 280 280 280 279 278 278 279
256 257 259 264 270 275 277 275 272 272 273 274 274 273 272 272 273 274 273 270 269 269 271 274 275 276 276 274 271 271 272 272 272 273 275 277 280 282 284 285 284 283 281 281 283 284 284 284 284 285 284 282 281 281 281 281 281 281 280 280 280 280 279 278 278 277 277 278 279 279 278 278 279 280
255 256 258 263 270 273 273 271 271 272 273 273 272 271 271 271 271 272 272 272 272 274 275 277 278 278 276 272 272 273 274 274 274 275 276 278 279 281 282 282 281 280 280 281 283 284 286 287 287 286 283 281 280 279 278 278 279 279 280 280 281 280 279 277 276 276 277 277 277 278 277 276 277 279
257 260 261 265 269 270 270 270 270 270 269 268 266 265 266 267 267 267 268 270 273 275 276 276 278 280 278 276 277 278 277 277 278 278 278 277 277 280 283 284 282 280 281 283 283 282 283 284 284 283 281 279 278 277 277 277 278 279 280 281 280 280 279 277 276 276 276 276 277 278 278 276 277 280
258 260 261 264 266 266 268 269 267 265 263 262 262 261 261 261 263 264 266 267 268 270 271 273 275 276 277 277 277 278 279 280 280 280 280 279 280 282 283 283 281 280 280 281 280 278 277 278 279 278 277 276 276 276 277 278 279 280 281 281 280 280 279 277 276 275 275 276 278 279 280 281 284 285
255 258 260 262 264 266 267 265 261 259 259 260 261 262 261 261 262 263 265 266 267 267 269 270 272 274 276 277 276 275 276 277 277 277 278 279 280 281 280 280 280 280 279 279 279 277 275 274 276 276 276 278 279 280 280 279 278 278 278 279 280 280 278 277 277 278 278 280 280 281 282 284 285 286
255 259 262 265 267 268 266 262 260 259 260 261 263 265 266 267 267 268 269 269 269 269 269 270 272 275 277 278 277 276 276 275 275 275 275 277 278 279 279 279 280 280 279 279 279 279 277 276 276 276 277 279 281 282 282 281 279 277 276 278 279 280 278 278 279 280 280 280 280 281 283 284 284 285
255 260 264 266 266 265 262 259 260 262 264 266 267 268 269 270 270 271 270 270 270 271 271 272 274 275 276 277 278 278 278 277 276 276 277 278 278 279 279 280 280 279 279 279 279 281 281 280 280 278 277 278 278 279 281 282 282 281 280 279 278 277 276 277 278 278 278 278 280 280 281 283 283 282
255 258 259 259 259 258 258 259 261 264 267 270 271 272 272 273 273 272 272 272 273 274 274 275 275 275 276 276 276 276 276 277 277 278 278 278 278 279 281 282 281 280 280 280 281 282 283 284 284 283 281 280 279 280 282 283 284 284 283 280 278 276 276 277 278 279 280 282 283 282 280 280 281 282
260 259 257 257 258 259 262 263 264 266 269 272 275 278 279 279 278 277 276 276 276 276 276 276 275 274 274 273 273 273 273 274 276 276 277 277 277 279 280 279 279 279 279 279 280 281 283 285 286 285 284 283 283 284 286 287 287 287 284 281 280 280 279 280 282 283 283 283 284 283 280 278 279 282
265 264 262 261 262 263 265 267 268 268 270 274 277 279 281 282 282 281 280 279 278 278 278 276 275 273 272 272 272 273 273 273 274 275 276 276 276 276 276 276 275 275 276 276 277 279 281 283 284 284 283 284 285 286 289 290 291 290 288 284 284 284 282 282 285 286 285 283 283 283 280 279 280 281
267 267 267 266 266 266 267 269 270 272 274 276 278 280 282 284 285 284 284 283 282 282 281 280 278 276 274 274 273 273 273 273 274 274 274 273 273 273 273 273 273 274 274 275 276 277 278 279 281 282 283 285 287 289 292 294 294 293 291 287 286 287 286 286 288 289 288 286 285 283 281 280 280 279
270 270 270 270 270 270 271 272 274 276 278 280 282 284 286 287 287 287 287 287 286 285 284 283 281 279 277 275 274 273 272 271 271 270 269 268 268 269 269 270 271 272 273 274 275 276 277 278 278 280 282 284 287 290 293 296 295 294 293 291 289 289 289 289 289 287 284 282 280 279 278 278 277 275
276 277 277 277 277 277 279 280 282 284 285 287 288 289 290 290 289 288 287 287 287 287 285 284 282 281 278 275 273 272 271 269 268 267 266 265 265 264 265 266 267 269 270 272 275 276 276 277 277 278 280 283 286 289 291 293 293 293 293 294 294 294 294 294 293 289 284 281 277 274 273 273 274 276
281 282 282 282 283 284 285 287 289 291 293 294 294 294 293 292 291 289 288 287 287 287 286 284 282 279 276 274 272 270 269 267 266 265 263 262 262 262 263 265 266 268 269 272 274 275 275 275 275 277 279 281 284 286 288 290 291 291 292 293 294 295 296 297 297 294 290 284 279 276 274 274 276 278
286 287 289 290 292 293 295 297 298 299 300 301 300 299 298 296 295 293 291 290 288 287 286 283 280 277 276 275 272 269 267 266 265 264 263 263 263 265 267 269 271 273 275 275 276 276 277 277 277 277 279 281 282 284 286 288 289 290 291 292 293 293 295 296 295 293 288 282 278 277 276 276 276 276
292 294 296 297 300 302 303 304 305 306 307 307 306 306 305 304 302 300 298 295 291 288 285 282 280 278 277 276 273 269 267 266 265 266 267 269 271 273 275 278 280 281 281 281 280 281 281 281 281 281 281 281 283 284 286 288 289 290 290 290 290 291 292 293 292 290 286 282 280 279 280 281 282 281
296 297 299 302 304 306 307 309 311 312 312 311 310 312 312 311 310 309 307 304 299 294 291 288 286 284 282 281 279 277 274 273 273 276 279 281 284 285 286 287 287 286 286 286 286 286 285 283 283 283 283 283 283 285 286 287 289 291 291 291 290 290 289 289 289 287 286 284 282 280 281 284 286 285
297 299 302 305 309 311 312 314 315 315 315 313 314 316 318 318 317 313 311 310 308 306 304 301 298 296 294 293 292 290 289 287 287 289 290 290 291 291 291 291 289 287 287 287 287 286 285 284 284 285 285 286 286 286 287 288 289 291 292 293 293 291 289 288 287 285 283 282 281 279 279 281 281 279
303 305 307 312 315 317 316 316 317 318 319 317 316 318 318 317 316 314 312 311 310 308 306 304 302 302 300 298 296 294 293 292 290 289 290 290 292 294 294 295 294 292 290 289 288 286 285 284 285 286 287 287 288 288 289 290 291 292 292 292 292 290 289 287 285 283 281 281 280 281 281 281 278 276
310 311 314 318 319 318 316 316 317 318 317 315 315 316 316 315 314 313 310 311 311 310 308 305 303 301 299 297 296 294 292 291 291 291 292 293 295 297 299 300 301 301 298 296 294 291 288 286 286 288 289 290 290 291 291 293 295 298 298 297 294 291 287 285 284 283 282 281 281 283 283 281 278 277
318 319 320 320 321 319 316 316 316 314 313 312 312 313 313 313 313 312 312 312 312 310 308 305 303 303 302 300 298 296 293 292 292 292 292 294 297 301 304 305 305 305 304 302 299 298 296 295 295 295 296 296 296 296 296 298 300 302 304 302 299 294 289 284 282 282 280 280 283 288 291 288 283 278
326 324 321 319 321 319 316 315 314 313 314 316 316 316 316 315 315 315 315 315 314 311 309 306 305 304 304 302 299 296 293 290 289 288 289 294 300 305 308 307 306 305 304 303 302 302 303 304 304 303 301 300 299 298 300 301 303 304 305 304 303 299 293 285 281 280 277 274 276 282 284 279 273 268
320 321 320 320 321 320 317 315 315 316 317 318 318 319 319 318 317 317 317 316 315 313 311 310 308 308 306 303 299 296 292 289 287 288 291 297 304 307 307 306 306 305 305 304 304 305 305 305 305 303 302 301 299 298 298 300 300 301 301 301 301 298 294 287 282 280 276 270 265 263 263 265 266 265
296 310 318 323 323 322 320 319 319 321 321 319 319 321 321 319 318 318 317 315 314 313 313 313 313 312 310 306 301 296 292 290 289 291 294 298 302 305 306 306 306 306 305 305 305 305 304 304 303 302 301 301 300 300 300 299 299 298 297 297 296 294 291 286 281 278 276 273 268 262 262 267 272 271
282 291 303 313 318 320 322 323 324 325 324 322 321 322 322 321 320 318 317 315 314 314 314 314 312 311 308 305 301 298 296 293 293 295 297 298 300 301 302 302 302 302 304 304 304 304 305 304 304 303 302 302 302 303 303 302 300 298 297 296 294 292 290 286 283 281 279 277 274 272 273 276 280 280
277 279 283 290 298 306 313 317 320 321 321 320 320 319 320 320 319 318 317 315 314 313 313 312 310 308 305 301 299 297 296 295 293 294 295 295 295 294 294 294 296 298 299 300 302 304 305 305 305 305 305 304 304 304 304 303 302 301 299 297 295 293 291 290 287 284 282 280 280 281 281 281 282 279
274 276 277 279 283 289 298 305 310 313 315 316 317 317 317 317 317 317 316 313 311 310 310 309 307 304 302 298 295 293 293 292 291 289 289 289 290 291 291 292 293 295 296 298 300 301 302 303 305 306 306 305 304 303 302 302 303 303 302 301 299 296 294 291 288 285 284 284 285 284 281 280 278 275
270 273 275 277 278 280 284 289 294 299 304 308 311 314 316 316 316 314 312 309 307 305 304 304 302 300 298 295 293 291 290 290 289 288 288 289 291 293 294 295 295 295 295 295 296 296 297 298 299 301 301 302 302 302 301 301 302 303 303 302 301 298 295 292 289 286 285 284 282 278 275 273 271 270
265 267 271 275 277 278 280 281 284 288 293 298 303 307 310 311 311 309 307 304 302 301 300 299 297 296 294 293 292 291 290 289 290 291 291 292 293 294 295 296 296 295 294 293 293 293 293 293 293 293 293 294 295 296 297 299 300 301 301 300 299 298 296 293 290 287 284 281 278 276 274 273 272 268
262 264 267 271 274 277 279 280 281 284 287 290 294 297 299 301 302 302 302 300 298 297 296 295 294 293 292 292 292 292 291 291 292 293 294 294 293 293 293 293 294 293 293 292 291 291 291 291 291 290 289 289 290 291 292 294 295 295 295 295 295 295 294 292 290 287 284 281 278 277 277 275 272 265
263 264 266 269 272 275 277 278 280 282 284 286 287 288 289 290 292 292 293 294 294 294 293 292 291 290 289 289 290 290 290 292 293 293 294 294 293 292 292 292 291 291 291 291 290 289 289 289 289 289 288 288 288 288 288 289 290 290 290 290 290 289 289 289 288 286 283 281 280 279 279 276 272 267
267 268 269 270 271 273 274 276 278 279 280 281 281 281 281 283 285 285 286 286 288 289 290 290 289 288 288 288 288 288 288 289 290 291 292 292 292 292 291 291 290 289 289 288 288 288 287 287 287 287 287 287 287 287 286 287 287 288 288 288 287 287 286 285 286 285 283 281 280 279 278 276 273 269